Location: �chenoz-la-M�line
(47.6009°N, 6.1354°E)
Time: 03:43:15
(UTC+00:00)

STARLINK-2055 - Pass Details

Date: 27 January 2021
Orbit: 379 x 380 km, 53.1° (Epoch: 27 February)

Event Time Altitude Azimuth Distance (km) Brightness Sun altitude
Exits shadow 05:44:41 - 216° (SW) 1,714 5.9 -14.1°
Reaches altitude 10° 05:45:27 10° 212° (SSW) 1,413 5.5 -13.9°
Maximum altitude 05:48:24 37° 143° (SE) 624 4.4 -13.4°
Drops below altitude 10° 05:51:23 10° 74° (ENE) 1,429 6.7 -13.0°
Sets 05:53:32 0° 65° (ENE) 2,291 7.7 -12.6°
